Regional Weather Roundup
Issued by NWS

Home | Current Version | Previous Version | Graphics & Text | Print | Product List | Glossary On
Versions: 1 2 3 4 5 6 7 8 9 10 11 12 13 14 15 16 17 18 19 20 21 22 23 24 25 26 27 28 29 30 31 32 33 34 35 36 37 38 39 40 41 42 43 44 45 46 47 48 49 50
000
ASUS43 KLSX 270207
RWRMO

WEATHER SUMMARY FOR MISSOURI
NATIONAL WEATHER SERVICE SPRINGFIELD MO
800 PM CST SUN FEB 26 2017

NOTE: "FAIR" INDICATES FEW OR NO CLOUDS BELOW 12,000 FEET WITH NO
       SIGNIFICANT WEATHER AND/OR OBSTRUCTIONS TO VISIBILITY.
       CURRENT SKY AND/OR WEATHER CONDITIONS ARE NOT AVAILABLE FOR
       CHILLICOTHE AND FARMINGTON.

MOZ001>031-035>038-043-044-053-054-270300-
...NORTHERN AND WESTERN MISSOURI...

CITY           SKY/WX    TMP DP  RH WIND       PRES   REMARKS
KANSAS CTY INT CLEAR     41  33  73 S10       30.00R
KANSAS C DTWN  CLEAR     43  35  73 S9        30.01R
LEE`S SUMMIT   CLEAR     40  36  86 S12       30.02R
ST JOSEPH      CLEAR     36  26  67 S6        29.99R
CHILLICOTHE      N/A     40  24  53 S8        30.02R
KIRKSVILLE     CLEAR     36  20  52 S8        30.01R WCI  30

$$
MOZ066>068-077>081-088>096-101>105-270300-
...SOUTHWEST MISSOURI...

CITY           SKY/WX    TMP DP  RH WIND       PRES   REMARKS
SPRINGFIELD    CLOUDY    44  28  53 SE13      30.00R
JOPLIN         CLOUDY    41  35  79 E3        30.00R
BRANSON        CLOUDY    45  25  45 E9        30.02S

$$
MOZ032>034-039>042-045>050-055>058-069>072-270300-
...CENTRAL MISSOURI...

CITY           SKY/WX    TMP DP  RH WIND       PRES   REMARKS
COLUMBIA       CLOUDY    39  35  86 S10       30.06R
JEFFERSON CITY CLOUDY    40  37  89 SE9       30.09R
ROLLA          CLOUDY    37  35  92 S8        30.06R
SEDALIA        CLOUDY    40  36  86 S10       30.06R
WHITEMAN AFB   CLOUDY    40  40 100 S9        30.04R
WARRENSBURG    CLOUDY    39  34  81 SE8       30.04R
OSAGE BEACH    CLOUDY    38  37  97 E5        30.07R

$$
MOZ051-052-059>065-270300-
...EAST CENTRAL MISSOURI...

CITY           SKY/WX    TMP DP  RH WIND       PRES   REMARKS
ST LOUIS INTL  CLOUDY    43  32  65 S9        30.11R
SPIRIT OF STL  CLOUDY    42  34  73 S7        30.11R
ST CHARLES     CLOUDY    42  34  73 S13       30.10R

$$
MOZ072>076-082>087-097>100-106>115-270300-
...SOUTH CENTRAL AND SOUTHEAST MISSOURI...

CITY           SKY/WX    TMP DP  RH WIND       PRES   REMARKS
CAPE GIRARDEAU CLOUDY    46  26  45 VRB5      30.11S
FARMINGTON     LGT RAIN  43  30  60 S3        30.11R
POPLAR BLUFF   CLOUDY    47  33  58 SE5       30.10R
WEST PLAINS    CLOUDY    46  24  42 E7        30.06S

$$



USA.gov is the U.S. government's official web portal to all federal, state and local government web resources and services.